User: anonymous   Login
Location: Caltech
(34.1382°N, 118.1253°W)
Time: 09:00:16
(UTC-08:00)
Language:

Aureole 3 Rocket - Orbit

View from above orbital plane
View from above orbital plane
View from above satellite
View from above satellite

Ground track
Ground track

The orbit data is extracted from the following two-line orbital elements,

1 12849U 81094B   17347.74293711  .00000340  00000-0  31311-4 0  9992
2 12849  82.4938  28.9541 0901438 292.2531  58.5452 13.50277913766150
Epoch (UTC): 13 December 2017 17:49:49
Eccentricity: 0.0901438
inclination: 82.4938°
perigee height: 400 km
apogee height: 1743 km
right ascension of ascending node: 28.9541°
argument of perigee: 292.2531°
revolutions per day: 13.50277913
mean anomaly at epoch: 58.5452°
orbit number at epoch: 76615

The dashed part of the orbit path shows where the satellite is in the earth's shadow,  

DLR